When you browse on this site, cookies collect data to enhance your experience and personalize the content and advertising you see.
Visit our Privacy Policy to learn more. By continuing to use the site, you agree to this use of cookies and data.
  • In Hungary
  • List of Countries
  • For 7 days
  • Water Temperature
  • Weather Map
  • News
  • Weather Widgets
  • user-avatar
    Login

    Hourly Weather Kuweit

    Today, 16 December, Monday

    Time Temperature Precipitation Wind Pressure Humidity
    00:00 +20°C° 0 mm 3 mps 761 mmHg 68%
    01:00 +20°C° 0 mm 3 mps 760 mmHg 71%
    02:00 +19°C° 0 mm 3 mps 759 mmHg 73%
    03:00 +19°C° 0 mm 4 mps 759 mmHg 76%
    04:00 +19°C° 0.1 mm 4 mps 759 mmHg 77%
    05:00 +19°C° 0.1 mm 4 mps 759 mmHg 78%
    06:00 +19°C° 0.1 mm 4 mps 759 mmHg 79%
    07:00 +19°C° 4 mm 4 mps 759 mmHg 83%
    08:00 +19°C° 4 mm 4 mps 759 mmHg 87%
    09:00 +17°C° 4 mm 5 mps 759 mmHg 91%
    10:00 +19°C° 1.3 mm 5 mps 758 mmHg 90%
    11:00 +19°C° 1.3 mm 5 mps 758 mmHg 89%
    12:00 +19°C° 1.3 mm 5 mps 758 mmHg 87%
    13:00 +19°C° 1.7 mm 5 mps 757 mmHg 88%
    14:00 +19°C° 1.7 mm 5 mps 756 mmHg 89%
    15:00 +20°C° 1.7 mm 4 mps 756 mmHg 89%
    16:00 +19°C° 0.9 mm 5 mps 756 mmHg 90%
    17:00 +19°C° 0.9 mm 6 mps 756 mmHg 90%
    18:00 +19°C° 0.9 mm 6 mps 756 mmHg 91%
    19:00 +18°C° 0.3 mm 7 mps 757 mmHg 89%
    20:00 +17°C° 0.3 mm 7 mps 757 mmHg 87%
    21:00 +17°C° 0.3 mm 8 mps 758 mmHg 85%
    22:00 +16°C° 0 mm 8 mps 758 mmHg 83%
    23:00 +16°C° 0 mm 8 mps 758 mmHg 80%

    Tomorrow, 17 December, Tuesday

    Time Temperature Precipitation Wind Pressure Humidity
    00:00 +15°C° 0 mm 9 mps 759 mmHg 78%
    01:00 +15°C° 0 mm 9 mps 759 mmHg 76%
    02:00 +15°C° 0 mm 8 mps 759 mmHg 74%
    03:00 +15°C° 0 mm 8 mps 759 mmHg 73%
    04:00 +15°C° 0 mm 8 mps 760 mmHg 72%
    05:00 +13°C° 0 mm 8 mps 760 mmHg 71%
    06:00 +14°C° 0 mm 7 mps 761 mmHg 70%
    07:00 +15°C° 0 mm 7 mps 761 mmHg 66%
    08:00 +15°C° 0 mm 7 mps 762 mmHg 63%
    09:00 +15°C° 0 mm 7 mps 763 mmHg 59%
    10:00 +16°C° 0 mm 7 mps 763 mmHg 55%
    11:00 +17°C° 0 mm 7 mps 763 mmHg 52%
    12:00 +19°C° 0 mm 6 mps 763 mmHg 48%
    13:00 +19°C° 0 mm 6 mps 762 mmHg 47%
    14:00 +19°C° 0 mm 6 mps 762 mmHg 47%
    15:00 +19°C° 0 mm 6 mps 762 mmHg 46%
    16:00 +19°C° 0 mm 6 mps 763 mmHg 46%
    17:00 +19°C° 0 mm 5 mps 763 mmHg 47%
    18:00 +17°C° 0 mm 5 mps 763 mmHg 48%
    19:00 +18°C° 0 mm 4 mps 764 mmHg 50%
    20:00 +18°C° 0 mm 3 mps 764 mmHg 52%
    21:00 +17°C° 0 mm 2 mps 764 mmHg 55%
    22:00 +17°C° 0 mm 2 mps 764 mmHg 54%
    23:00 +18°C° 0 mm 1 mps 764 mmHg 54%

    Day after tomorrow, 18 December, Wednesday

    Time Temperature Precipitation Wind Pressure Humidity
    00:00 +18°C° 0 mm 1 mps 764 mmHg 53%
    01:00 +17°C° 0 mm 2 mps 764 mmHg 54%
    02:00 +16°C° 0 mm 2 mps 764 mmHg 54%
    03:00 +16°C° 0 mm 3 mps 764 mmHg 55%
    04:00 +16°C° 0 mm 3 mps 764 mmHg 55%
    05:00 +16°C° 0 mm 3 mps 765 mmHg 56%
    06:00 +14°C° 0 mm 3 mps 765 mmHg 56%
    07:00 +16°C° 0 mm 3 mps 765 mmHg 55%
    08:00 +16°C° 0 mm 3 mps 765 mmHg 54%
    09:00 +16°C° 0 mm 3 mps 766 mmHg 53%
    10:00 +17°C° 0 mm 3 mps 766 mmHg 51%
    11:00 +18°C° 0 mm 3 mps 765 mmHg 49%
    12:00 +19°C° 0 mm 3 mps 765 mmHg 47%
    13:00 +19°C° 0 mm 3 mps 765 mmHg 47%
    14:00 +19°C° 0 mm 3 mps 765 mmHg 47%
    15:00 +19°C° 0 mm 3 mps 764 mmHg 46%
    16:00 +19°C° 0 mm 3 mps 765 mmHg 48%
    17:00 +19°C° 0 mm 3 mps 765 mmHg 49%
    18:00 +18°C° 0 mm 3 mps 765 mmHg 51%
    19:00 +18°C° 0 mm 3 mps 765 mmHg 51%
    20:00 +18°C° 0 mm 3 mps 765 mmHg 51%
    21:00 +18°C° 0 mm 4 mps 766 mmHg 51%
    22:00 +17°C° 0 mm 4 mps 766 mmHg 53%
    23:00 +17°C° 0 mm 4 mps 766 mmHg 54%

    19 December, Thursday

    Time Temperature Precipitation Wind Pressure Humidity
    00:00 +17°C° 0 mm 4 mps 766 mmHg 56%
    01:00 +17°C° 0 mm 4 mps 766 mmHg 58%
    02:00 +15°C° 0 mm 4 mps 765 mmHg 60%
    03:00 +15°C° 0 mm 4 mps 765 mmHg 63%
    04:00 +15°C° 0 mm 4 mps 766 mmHg 63%
    05:00 +15°C° 0 mm 5 mps 766 mmHg 64%
    06:00 +14°C° 0 mm 5 mps 766 mmHg 64%
    07:00 +15°C° 0 mm 5 mps 766 mmHg 61%
    08:00 +15°C° 0 mm 5 mps 767 mmHg 58%
    09:00 +16°C° 0 mm 6 mps 767 mmHg 56%
    10:00 +17°C° 0 mm 6 mps 767 mmHg 51%
    11:00 +19°C° 0 mm 6 mps 766 mmHg 47%
    12:00 +20°C° 0 mm 6 mps 766 mmHg 42%
    13:00 +20°C° 0 mm 6 mps 766 mmHg 41%
    14:00 +20°C° 0 mm 6 mps 765 mmHg 39%
    15:00 +21°C° 0 mm 6 mps 765 mmHg 37%
    16:00 +20°C° 0 mm 6 mps 765 mmHg 39%
    17:00 +19°C° 0 mm 6 mps 765 mmHg 41%
    18:00 +19°C° 0 mm 6 mps 765 mmHg 43%
    19:00 +19°C° 0 mm 6 mps 765 mmHg 44%
    20:00 +17°C° 0 mm 6 mps 765 mmHg 45%
    21:00 +17°C° 0 mm 6 mps 766 mmHg 46%
    22:00 +16°C° 0 mm 5 mps 766 mmHg 46%
    23:00 +16°C° 0 mm 5 mps 766 mmHg 47%

    20 December, Friday

    Time Temperature Precipitation Wind Pressure Humidity
    00:00 +16°C° 0 mm 5 mps 765 mmHg 48%
    01:00 +15°C° 0 mm 5 mps 765 mmHg 48%
    02:00 +15°C° 0 mm 5 mps 765 mmHg 49%
    03:00 +15°C° 0 mm 5 mps 765 mmHg 49%
    04:00 +14°C° 0 mm 5 mps 765 mmHg 50%
    05:00 +14°C° 0 mm 5 mps 765 mmHg 50%
    06:00 +14°C° 0 mm 5 mps 765 mmHg 51%
    07:00 +14°C° 0 mm 6 mps 766 mmHg 49%
    08:00 +15°C° 0 mm 6 mps 766 mmHg 48%
    09:00 +15°C° 0 mm 6 mps 767 mmHg 46%
    10:00 +16°C° 0 mm 6 mps 766 mmHg 43%
    11:00 +17°C° 0 mm 5 mps 766 mmHg 39%
    12:00 +19°C° 0 mm 5 mps 766 mmHg 35%
    13:00 +20°C° 0 mm 5 mps 765 mmHg 34%
    14:00 +20°C° 0 mm 4 mps 765 mmHg 33%
    15:00 +21°C° 0 mm 4 mps 765 mmHg 32%
    16:00 +20°C° 0 mm 4 mps 765 mmHg 34%
    17:00 +19°C° 0 mm 4 mps 765 mmHg 35%
    18:00 +19°C° 0 mm 4 mps 765 mmHg 37%
    19:00 +18°C° 0 mm 4 mps 765 mmHg 37%
    20:00 +18°C° 0 mm 4 mps 765 mmHg 38%
    21:00 +17°C° 0 mm 4 mps 766 mmHg 38%
    22:00 +17°C° 0 mm 4 mps 765 mmHg 39%
    23:00 +17°C° 0 mm 4 mps 765 mmHg 39%

    21 December, Saturday

    Time Temperature Precipitation Wind Pressure Humidity
    00:00 +15°C° 0 mm 4 mps 765 mmHg 39%
    01:00 +15°C° 0 mm 4 mps 765 mmHg 39%
    02:00 +15°C° 0 mm 4 mps 765 mmHg 40%
    03:00 +14°C° 0 mm 4 mps 765 mmHg 40%
    04:00 +14°C° 0 mm 4 mps 765 mmHg 40%
    05:00 +14°C° 0 mm 4 mps 765 mmHg 40%
    06:00 +14°C° 0 mm 4 mps 765 mmHg 41%
    07:00 +14°C° 0 mm 4 mps 765 mmHg 39%
    08:00 +15°C° 0 mm 4 mps 766 mmHg 37%
    09:00 +15°C° 0 mm 4 mps 766 mmHg 35%
    10:00 +17°C° 0 mm 3 mps 766 mmHg 32%
    11:00 +18°C° 0 mm 3 mps 765 mmHg 30%
    12:00 +19°C° 0 mm 3 mps 765 mmHg 27%
    13:00 +19°C° 0 mm 3 mps 765 mmHg 26%
    14:00 +20°C° 0 mm 3 mps 764 mmHg 25%
    15:00 +20°C° 0 mm 3 mps 764 mmHg 25%
    16:00 +20°C° 0 mm 3 mps 764 mmHg 26%
    17:00 +19°C° 0 mm 3 mps 764 mmHg 28%
    18:00 +19°C° 0 mm 3 mps 764 mmHg 29%
    19:00 +18°C° 0 mm 3 mps 764 mmHg 30%
    20:00 +18°C° 0 mm 3 mps 764 mmHg 31%
    21:00 +17°C° 0 mm 3 mps 764 mmHg 32%
    22:00 +17°C° 0 mm 3 mps 764 mmHg 32%
    23:00 +16°C° 0 mm 3 mps 764 mmHg 32%
    Show more